Regional Weather Roundup
Issued by NWS

Home | Current Version | Previous Version | Text Only | Print | Product List | Glossary On
Versions: 1 2 3 4 5 6 7 8 9 10 11 12 13 14 15 16 17 18 19 20 21 22 23 24 25 26 27 28
942
ASUS46 KPQR 221310
RWROR

OREGON REGIONAL WEATHER ROUNDUP
NATIONAL WEATHER SERVICE PORTLAND OR
600 AM PDT FRI MAY 22 2015

NOTE: "FAIR" INDICATES FEW OR NO CLOUDS BELOW 12,000 FEET WITH
NO SIGNIFICANT WEATHER AND/OR OBSTRUCTIONS TO VISIBILITY.

ORZ001>013-221400-
NORTHWEST OREGON


CITY           SKY/WX    TMP DP  RH WIND       PRES   REMARKS
ASTORIA        CLOUDY    52  51  97 W3        29.99S FOG
NEWPORT        CLOUDY    50  50 100 CALM      30.04S FOG
PORTLAND       CLOUDY    56  49  77 NW3       29.99R
VANCOUVER WA   CLOUDY    56  48  74 VRB3      29.99R
SCAPPOOSE      LGT RAIN  55  48  77 NW5       29.98R
HILLSBORO      LGT RAIN  54  49  83 CALM      29.98R
AURORA         CLOUDY    53  51  93 S6        29.99R
MCMINNVILLE    CLOUDY    54  50  86 CALM      29.99R
SALEM          LGT RAIN  54  51  90 NW3       29.98S
CORVALLIS      CLOUDY    54  50  87 W3        30.00S
EUGENE         CLOUDY    54  49  83 SW6       30.00R
$$

ORZ021-028-221400-
SOUTHWEST OREGON


CITY           SKY/WX    TMP DP  RH WIND       PRES   REMARKS
NORTH BEND     CLOUDY    54  52  94 N6        30.04S
BROOKINGS      CLOUDY    54  54 100 CALM      30.02S FOG
ROSEBURG       CLOUDY    57  49  74 N6        30.00R
SEXTON SUMMIT  FOG       47  47 100 CALM      29.99R VSB 1/4
MEDFORD        CLOUDY    58  55  90 NW5       29.96R
$$

ORZ014>016-041-221400-
COLUMBIA GORGE


CITY           SKY/WX    TMP DP  RH WIND       PRES   REMARKS
TROUTDALE      CLOUDY    56  49  77 CALM      29.97R
THE DALLES     CLOUDY    63  50  62 MISG      29.85R
$$

ORZ029>031-041-044-049-050-061>064-502-503-505>511-221400-
EASTERN OREGON


CITY           SKY/WX    TMP DP  RH WIND       PRES   REMARKS
REDMOND        CLOUDY    51  50  96 CALM      29.93R
BEND           CLOUDY    50  48  93 SW3       29.94S
PRINEVILLE     CLOUDY    50  50 100 CALM      29.93S
KLAMATH FALLS  LGT RAIN  50  47  89 CALM      29.96S
LAKEVIEW       CLOUDY    46  43  87 SE7       29.99S
HERMISTON      CLOUDY    62  54  74 S5        29.82R
PENDLETON      MOCLDY    58  52  80 SE5       29.84S
JOHN DAY       CLOUDY    50  47  92 E5        29.94S
MEACHAM        CLOUDY    47  45  93 CALM      29.91S
LA GRANDE      PTCLDY    50  41  71 CALM      29.89R
BAKER CITY     FOG       41  41 100 N3        29.91S VSB 1/2
BURNS          CLOUDY    49  45  86 CALM      29.93S
ROME             N/A     48  43  82 S8        29.91R
ONTARIO        CLOUDY    53  49  86 W5        29.89R
$$



USA.gov is the U.S. government's official web portal to all federal, state and local government web resources and services.